Printer-friendly version
Follow the MPC on Twitter Follow the MPC on Facebook The MPC blog
Minor Planet Center

MPEC 2000-R25 : 2000 RW37

The following Minor Planet Electronic Circular may be linked-to from your own Web pages, but must not otherwise be redistributed electronically.

A form allowing access to any MPEC is at the bottom of this page.


Read MPEC 2000-R24 Read MPEC 2000-R26


M.P.E.C. 2000-R25                                Issued 2000 Sept. 6, 17:34 UT

     The Minor Planet Electronic Circulars contain information on unusual
         minor planets and routine data on comets.  They are published
   on behalf of Commission 20 of the International Astronomical Union by the
          Minor Planet Center, Smithsonian Astrophysical Observatory,
                          Cambridge, MA 02138, U.S.A.

             Prepared using the Tamkin Foundation Computer Network

             BMARSDEN@CFA.HARVARD.EDU or GWILLIAMS@CFA.HARVARD.EDU
          URL http://cfa-www.harvard.edu/iau/mpc.html  ISSN 1523-6714

                                   2000 RW37

Observations:
     K00R37W* C2000 09 03.26597 23 08 24.91 +04 31 51.9          18.7        704
     K00R37W  C2000 09 03.27862 23 08 22.62 +04 32 08.5          18.5        704
     K00R37W  C2000 09 03.29132 23 08 20.33 +04 32 25.0          18.7        704
     K00R37W  C2000 09 03.30404 23 08 17.96 +04 32 41.0          18.4        704
     K00R37W  C2000 09 04.23347 23 05 35.23 +04 52 19.2          18.6        704
     K00R37W  C2000 09 04.24699 23 05 32.74 +04 52 35.5          19.1        704
     K00R37W  C2000 09 04.26048 23 05 30.20 +04 52 53.3          19.3        704
     K00R37W  C2000 09 04.27404 23 05 27.69 +04 53 11.3          19.1        704
     K00R37W  C2000 09 04.28754 23 05 25.12 +04 53 27.9          19.3        704
     K00R37W  C2000 09 04.88039 23 03 39.65 +05 05 56.6                      046
     K00R37W  C2000 09 04.88227 23 03 39.08 +05 05 58.2                      046
     K00R37W  C2000 09 04.88328 23 03 38.98 +05 06 00.5          18.2 R      046
     K00R37W  C2000 09 04.88448 23 03 38.66 +05 06 02.4                      046
     K00R37W  C2000 09 04.88546 23 03 38.51 +05 06 03.2                      046
     K00R37W  C2000 09 05.01245 23 03 14.73 +05 08 45.4                      595
     K00R37W  C2000 09 05.02234 23 03 12.85 +05 08 57.9                      595
     K00R37W  C2000 09 05.02734 23 03 11.98 +05 09 04.3          18.5 V      595
     K00R37W  C2000 09 05.25271 23 02 31.93 +05 13 53.1          19.0        704
     K00R37W  C2000 09 05.26570 23 02 29.37 +05 14 10.5          19.1        704
     K00R37W  C2000 09 05.27186 23 02 28.21 +05 14 18.5          19.0        704
     K00R37W VC2000 09 05.27520 23 02 27.86 +05 14 24.1                      670
     K00R37W  C2000 09 05.27944 23 02 26.75 +05 14 28.7          19.0        704
     K00R37W  C2000 09 05.28537 23 02 25.70 +05 14 36.3          19.0        704
     K00R37W  C2000 09 05.29247 23 02 24.27 +05 14 45.2          18.9        704
     K00R37W  C2000 09 05.29857 23 02 23.16 +05 14 52.6          18.5        704
     K00R37W  C2000 09 05.30556 23 02 21.82 +05 15 01.6          19.3        704
     K00R37W  C2000 09 05.31194 23 02 20.65 +05 15 09.7          18.9        704
     K00R37W 1C2000 09 05.31741 23 02 19.89 +05 15 11.6                      658
     K00R37W 1C2000 09 05.32115 23 02 19.13 +05 15 16.6                      658
     K00R37W 1C2000 09 05.32421 23 02 18.62 +05 15 20.4                      658
     K00R37W VC2000 09 05.38027 23 02 07.89 +05 16 36.7                      670
     K00R37W  C2000 09 05.71934 23 01 05.63 +05 23 47.1                      344
     K00R37W  C2000 09 05.72074 23 01 05.35 +05 23 48.8                      344
     K00R37W  C2000 09 05.72579 23 01 04.39 +05 23 55.1                      344
     K00R37W  C2000 09 05.72716 23 01 04.14 +05 23 56.8                      344
     K00R37W  C2000 09 05.90199 23 00 33.26 +05 27 35.3                      587
     K00R37W  C2000 09 05.90567 23 00 32.52 +05 27 39.4                      587
     K00R37W  C2000 09 06.03926 23 00 06.77 +05 30 28.8                      118
     K00R37W  C2000 09 06.04265 23 00 06.14 +05 30 33.7                      118
     K00R37W  C2000 09 06.04611 23 00 05.44 +05 30 37.4                      118

Observer details:
046 Klet.  Observers M. Tichy, Z. Moravec.  0.57-m f/5.2 reflector + CCD.
118 Modra.  Observers L. Kornos, J. Toth. Kalmancok.  0.6-m f/5.5
    reflector + CCD.
344 Bohyunsan Optical Astronomy Observatory.  Observers S.-L. Kim,
    B. C. Lee.  1.8-m f/8 reflector + CCD.
587 Sormano.  Observers P. Sicoli, M. Cavagna, M. Banfi.  0.5-m
    reflector + CCD.
595 Farra d'Isonzo.  Observer  E. Pettarin.  0.40-m f/4.5 reflector + CCD.
658 National Research Council of Canada.  Observer D. D. Balam.  1.82-m
    Plaskett reflector + CCD.
670 Camarillo.  Observer J. E. Rogers.  0.30-m f/6.7 Helin Telescope + CCD.
704 Lincoln Laboratory ETS, New Mexico.  Observers M. Blythe, F. Shelly,
    M. Bezpalko, M. Elowitz, R. Huber, L. Manguso.  Measurers J. Stuart,
    R. Sayer, J. B. Evans, H. Viggh.  1.0-m f/2.15 reflector + CCD.

Orbital elements:
2000 RW37                                                            PHA 0.002D
Epoch 2000 Aug. 24.0 TT = JDT 2451780.5                 Spahr
M 256.40982              (2000.0)            P               Q
n   0.70796299     Peri.  133.07144     -0.29332711     -0.95015000
a   1.2467968      Node   333.43187     +0.79402548     -0.18055122
e   0.2503226      Incl.   13.67092     +0.53243098     -0.25419725
P   1.39           H   19.6           G   0.15
From 40 observations 2000 Sept. 3-6.

Ephemeris:
2000 RW37                a,e,i = 1.25, 0.25, 14                  q = 0.9347
Date    TT    R. A. (2000) Decl.     Delta      r     Elong.  Phase     V
2000 09 03    23 09.18   +04 26.5    0.351    1.353   167.0     9.6    18.6
2000 09 13    22 37.54   +07 56.5    0.323    1.319   163.3    12.6    18.5
2000 09 23    22 04.01   +11 06.3    0.314    1.283   148.9    23.8    18.7
2000 10 03    21 34.99   +13 37.7    0.320    1.245   134.1    35.3    19.1
2000 10 13    21 14.54   +15 36.5    0.335    1.206   121.1    45.1    19.4
2000 10 23    21 03.09   +17 19.2    0.353    1.166   110.3    53.1    19.6
2000 11 02    20 59.41   +19 00.7    0.370    1.126   101.6    59.7    19.8
2000 11 12    21 01.78   +20 52.1    0.380    1.087    94.4    65.2    20.0
2000 11 22    21 08.61   +22 57.8    0.384    1.050    88.5    70.0    20.1
2000 12 02    21 18.93   +25 19.5    0.378    1.017    83.7    74.6    20.1
2000 12 12    21 31.97   +27 57.5    0.364    0.987    79.8    79.0    20.1
2000 12 22    21 47.38   +30 48.3    0.340    0.963    76.5    83.4    20.1
2001 01 01    22 05.56   +33 48.2    0.307    0.946    74.0    87.8    20.0
2001 01 11    22 27.54   +36 52.5    0.267    0.936    72.1    92.2    19.9
2001 01 21    22 56.28   +39 51.5    0.222    0.935    70.9    96.1    19.6
2001 01 31    23 38.95   +42 27.4    0.174    0.943    70.8    99.1    19.3
2001 02 10    00 51.61   +43 22.2    0.127    0.958    73.2    99.5    18.6
2001 02 20    02 58.25   +36 29.0    0.090    0.980    81.8    93.0    17.6
2001 03 02    05 25.76   +12 32.6    0.082    1.008    99.9    75.6    16.8
2001 03 12    07 02.90   -09 31.7    0.111    1.041   112.6    61.8    17.1
2001 03 22    07 59.39   -19 51.1    0.158    1.077   116.9    55.6    17.8
2001 04 01    08 37.57   -24 23.5    0.213    1.116   118.2    52.1    18.4
2001 04 11    09 07.84   -26 28.3    0.272    1.155   118.2    49.9    18.9
2001 04 21    09 34.56   -27 23.3    0.333    1.195   117.3    48.3    19.4
2001 05 01    09 59.91   -27 44.9    0.398    1.234   115.9    47.2    19.8
2001 05 11    10 24.77   -27 52.8    0.466    1.273   114.0    46.5    20.2
2001 05 21    10 49.49   -27 56.0    0.537    1.310   111.7    45.9    20.6
2001 05 31    11 14.35   -28 00.8    0.612    1.345   109.1    45.5    20.9
2001 06 10    11 39.36   -28 10.1    0.691    1.377   106.1    45.1    21.2
2001 06 20    12 04.53   -28 24.4    0.773    1.408   103.0    44.7    21.5
2001 06 30    12 29.93   -28 43.8    0.858    1.436    99.7    44.3    21.8

Timothy B. Spahr             (C) Copyright 2000 MPC           M.P.E.C. 2000-R25

Read MPEC 2000-R24 Read MPEC 2000-R26


MPEC number:

Enter an MPEC number in one of the following forms:

  • 1997-B01 (the full form)
  • J97B01 (the packed version of the full form)
  • B01 (the abbreviated form)

Valid HTML 4.01!